Showing default

PANDORE, 63244

Orbit data source: Space-Track

PANDORE, 63244 is a payload satellite owned by U-Space (FR) in SSO that was launched on Sat, 15 Mar 2025 UTC via an FALCON 9 launch vehicle from the Air Force Western Test Range (AFWTR). Payload-class satellites include a variety of spacecraft equipped with specific instruments for various scientific and technological missions. These include communications satellites like Starlink; space stations such as the ISS; scientific satellites like the Hubble; Earth observation satellites from companies like Planet Labs, Umbra, and HawkEye 360; GPS; miniature CubeSats for education and research; and military/defense satellites.

Loading next visibility...
Identifier
63244, 2025-052AL
Orbit
SSO
Country
Flag of FRFR
Related business
Manufacturer
U-Space
Mission
Operational Commercial Technology
Bus & Motor
CUBESAT 12U, Unknown motor
Mass
~16 kg wet, ~16 kg dry
Launch date (UTC)
2025-03-15 (1 year ago)
Launch vehicle
FALCON 9
Launch site
Air Force Western Test Range (AFWTR)
Object type
Payload
Rocket body
Debris
Shape & HBR
Box + 2 Pan, 1.0 m
Radar Cross Section
0.155 m², Medium (>0.1 m² and < 1m²)

Expand to show TLE details & history
Last TLE update: 16 hours ago

TLE from 16 hours ago
0 PANDORE
1 63244U 25052AL  26151.21911131  .00003757  00000-0  34947-3 0  9999
2 63244  97.6922  42.9004 0003356 247.7960 112.2904 14.94918254 66072
Epoch: 2026-05-31T05:15Z
TLE epoch observation values (Epoch: 2026-05-31T05:15:31.217Z)
Latitude
-0.00008°
Longitude
75.29641°
Altitude
586.561 km
Speed
7.566 km/s
True Right ascension
02h 51m 36s
True Declination
0° 00' 00"
Sunlit
Object was in daylight at epoch
Visualization orbit readout
Latitude
Unknown
Longitude
Unknown
Altitude
Unknown
Speed
Unknown
Apparent Right ascension
Unknown
Apparent Declination
Unknown
Sunlit
N/A
Visualization observer readout
Local Sidereal Time
07:04:21
Azimuth
Unknown
Elevation
Unknown
Doppler factor
Unknown
Orbital elements
Apogee altitude
581.973 km
Perigee altitude
577.303 km
Semi-major axis
6,957.775 km
Eccentricity
0.00034
Inclination
97.6922°
RAAN
42.9004°
Arg. of periapsis
247.796°
True anomaly
112.32598°
Mean anomaly
112.2904°
Eccentric anomaly
112.30819°
Mean motion
3.73971 °/min
Orbital period
96.26 mins
BSTAR
0.00034947
Loading maneuver chart data...
Computing Atmospheric mass density...
Loading historical data...
Loading historical data...
Loading historical data...
Loading historical data...
Loading historical data...
Loading historical data...
Loading historical data...

Documentation

Showing up to 5 results
|